Vertical_Velocity
-0 -2 -1 -0 -2 -2 1 4 6 6 4 2 2 3 3 3 2 1 0 -0 -0 -1 -1 -1 -1 -0 0 0 -0 -0 -1 -1 -1 -1 -1 -0 -0 0 0 -0 -1 -2 -2 -2 -2 -2 -1 -1 -1 -1 -1 -2 -2 -2 -2 -2 -1 -1 -1 -1 -1 -1 -1 -1 -1 -0 -0 -0 -0
-2 -0 1 0 -1 2 5 5 4 4 5 6 5 3 2 1 1 0 -0 -0 -1 -1 -1 -1 -0 -0 -0 -0 -0 -1 -1 -1 -1 -1 -1 -0 0 0 -0 -1 -1 -2 -2 -2 -2 -2 -2 -2 -2 -2 -2 -2 -2 -1 -1 -1 -1 -1 -1 -1 -1 -1 -1 -1 -1 -1 -0 -0 -0
1 3 4 -0 1 3 5 3 3 3 4 5 4 3 2 1 1 0 -0 -1 -1 -1 -1 -1 -0 -0 -0 -0 -0 -1 -1 -1 -1 -1 -0 0 0 0 -0 -1 -1 -2 -2 -2 -2 -2 -2 -2 -2 -2 -1 -1 -1 -1 -1 -1 -1 -1 -1 -1 -1 -1 -1 -1 -1 -1 -1 -1 -1
5 5 2 -1 1 2 3 2 2 2 2 2 1 1 2 1 1 0 -0 -1 -1 -1 -1 -1 -0 -0 -0 -1 -1 -1 -1 -1 -1 -0 -0 0 0 0 -0 -1 -1 -1 -2 -2 -2 -2 -2 -2 -2 -2 -1 -1 -1 -1 -0 -0 -0 -1 -1 -1 -1 -1 -1 -1 -1 -1 -1 -1 -1
4 3 1 0 2 3 3 4 2 2 1 -0 -0 0 1 1 -0 -0 -1 -1 -1 -1 -1 -1 -0 -0 -0 -1 -1 -1 -1 -1 -1 -0 0 0 0 0 -0 -1 -1 -2 -2 -2 -2 -2 -2 -2 -2 -2 -1 -1 -1 -1 -0 -0 -0 -1 -1 -1 -2 -1 -1 -1 -2 -2 -1 -1 -1
1 0 1 2 4 4 4 5 3 1 -0 -0 -0 -0 -1 -1 -1 -1 -1 -1 -1 -1 -1 -1 -1 -1 -1 -1 -1 -1 -1 -1 -0 -0 0 1 0 -0 -1 -1 -1 -2 -2 -2 -2 -2 -2 -2 -2 -2 -1 -1 -1 -1 -1 -1 -1 -1 -1 -1 -1 -2 -2 -2 -2 -2 -1 -1 -1
-0 -1 0 2 3 3 3 3 2 2 1 1 1 1 -0 -1 -1 -1 -1 -1 -1 -1 -1 -1 -1 -1 -0 -1 -1 -1 -1 -0 -0 -0 0 0 0 -0 -1 -1 -2 -2 -2 -2 -2 -2 -2 -2 -2 -1 -1 -1 -1 -1 -1 -1 -1 -1 -1 -0 -1 -1 -1 -1 -2 -2 -1 -1 -0
1 1 1 2 3 3 3 2 2 2 2 2 2 2 1 0 -0 -1 -1 -1 -1 -1 -1 -1 -1 -0 -0 -0 -0 -0 -0 -0 -0 0 0 -0 -0 -1 -1 -2 -2 -2 -2 -2 -2 -2 -2 -2 -2 -1 -1 -1 -1 -1 -1 -1 -1 -1 -1 -0 -0 -1 -1 -1 -1 -2 -2 -1 -0
1 2 2 3 4 4 4 3 3 3 3 2 2 2 1 0 -0 -0 -1 -1 -1 -1 -0 -0 -0 -0 -0 -0 -0 -0 -0 -0 0 0 -0 -0 -1 -1 -2 -2 -2 -2 -2 -2 -2 -2 -2 -2 -2 -1 -1 -1 -1 -1 -1 -1 -1 -1 -1 -1 -0 -0 -0 -1 -1 -1 -1 -1 -0
-0 0 2 3 4 4 4 4 5 4 4 2 1 1 0 -0 -0 -0 -0 -1 -1 -0 -0 -0 -0 -0 -0 -0 -0 -0 -0 0 0 0 -0 -1 -2 -2 -2 -2 -2 -2 -2 -2 -2 -2 -2 -2 -2 -1 -1 -1 -1 -1 -1 -1 -1 -1 -1 -1 -1 -0 1 1 0 0 0 -0 0
0 0 1 2 2 3 4 4 4 4 3 2 1 -0 -0 -0 -0 -0 -0 -0 -0 -0 -0 0 0 0 0 0 0 0 0 0 0 -0 -1 -1 -2 -2 -2 -2 -2 -2 -2 -2 -2 -2 -2 -2 -1 -1 -1 -1 -1 -1 -1 -1 -1 -1 -1 -1 -1 -0 0 1 1 1 1 0 0
1 1 2 2 2 2 3 3 2 2 1 1 0 0 -0 0 -0 -0 -0 -0 -0 -0 0 0 0 0 0 0 0 0 0 0 -0 -1 -1 -2 -2 -2 -2 -2 -2 -2 -2 -2 -2 -2 -2 -2 -1 -1 -1 -1 -1 -1 -1 -1 -1 -1 -1 -1 -1 -0 0 1 1 1 1 0 0
1 1 2 3 3 3 2 2 1 1 0 0 0 0 0 0 0 0 -0 -0 0 0 0 0 0 0 0 1 1 1 0 0 -0 -1 -2 -2 -2 -2 -2 -2 -2 -2 -2 -2 -2 -2 -2 -2 -1 -1 -0 -0 -1 -1 -1 -1 -2 -1 -1 -1 -1 -0 -0 0 1 1 1 0 -0
2 2 1 1 2 2 2 1 1 0 0 0 0 0 0 0 0 0 0 0 0 0 1 1 1 1 1 1 1 1 0 -0 -1 -1 -2 -2 -2 -2 -2 -2 -2 -2 -2 -2 -2 -2 -2 -2 -1 -1 -1 -0 -0 -1 -1 -1 -1 -2 -1 -1 -1 -1 -0 -0 -0 -0 -0 -0 -1
2 2 2 1 1 1 1 1 0 0 0 0 0 0 0 0 0 0 0 0 1 1 1 1 1 1 1 1 1 0 -0 -1 -1 -2 -2 -2 -2 -2 -2 -2 -1 -2 -2 -2 -2 -2 -2 -2 -2 -2 -1 -1 -1 -1 -1 -1 -1 -1 -1 -1 -1 -1 -1 -1 -1 -1 -1 -2 -2
2 2 2 2 1 1 0 0 0 0 0 0 1 1 0 0 0 0 0 1 1 1 1 1 1 1 1 1 1 0 -0 -1 -2 -2 -2 -3 -2 -2 -2 -1 -1 -1 -2 -2 -2 -2 -2 -2 -2 -2 -2 -2 -1 -1 -1 -1 -0 -0 -0 -0 -0 -1 -1 -1 -1 -1 -1 -2 -2
2 2 2 1 1 0 0 0 0 0 1 1 1 1 1 0 1 1 1 1 1 1 1 1 1 1 1 1 0 -0 -1 -1 -2 -2 -2 -2 -2 -2 -1 -1 -1 -1 -1 -2 -2 -2 -2 -2 -2 -2 -2 -2 -2 -1 -1 -1 -0 -0 -0 -0 -0 -0 -0 -1 -1 -1 -1 -2 -2
2 2 1 1 1 1 1 1 1 1 1 1 1 1 1 1 1 1 1 1 1 1 1 1 1 1 1 0 0 -0 -1 -2 -2 -2 -2 -2 -2 -2 -1 -1 -1 -1 -2 -2 -2 -2 -1 -1 -1 -2 -2 -1 -1 -1 -1 -0 -0 -0 -0 -0 -0 -0 -0 -0 -0 -1 -1 -2 -2
1 1 1 1 1 1 2 2 1 1 1 1 1 1 1 1 1 1 1 1 1 1 1 1 1 1 0 -0 -0 -1 -1 -2 -2 -2 -2 -2 -1 -1 -1 -1 -2 -2 -2 -2 -2 -2 -1 -1 -1 -1 -1 -1 -0 -0 -0 -0 -0 -1 -1 -1 -1 -1 -1 -0 -0 -0 -1 -1 -2
1 1 1 1 1 2 2 2 2 1 1 1 1 1 1 1 1 1 1 1 1 1 1 1 1 0 0 -0 -1 -1 -1 -2 -2 -2 -2 -1 -1 -1 -1 -2 -2 -2 -2 -2 -2 -1 -1 -1 -1 -0 -0 -0 -0 -0 -0 -0 -1 -1 -1 -1 -1 -1 -1 -1 -0 -0 -0 -1 -1
2 2 2 2 2 2 1 1 1 1 1 1 1 1 2 2 2 1 1 1 1 1 1 0 0 0 -0 -0 -1 -1 -2 -2 -2 -2 -2 -1 -1 -1 -2 -2 -2 -2 -2 -2 -1 -1 -1 -0 -0 -0 -0 -0 -0 -1 -1 -1 -1 -1 -1 -1 -1 -1 -1 -1 -1 -0 -0 -1 -1
2 2 2 2 2 1 1 1 1 1 1 1 2 2 2 2 1 1 1 1 1 1 0 0 0 -0 -0 -0 -1 -1 -2 -2 -2 -2 -2 -1 -2 -2 -2 -2 -2 -2 -2 -1 -1 -0 0 1 1 0 -0 -1 -1 -2 -2 -2 -2 -2 -2 -2 -1 -1 -1 -1 -1 -1 -0 -1 -1
2 2 2 2 1 1 1 1 1 1 1 2 2 2 2 2 1 1 1 1 1 0 0 0 -0 -0 -0 -1 -1 -2 -2 -2 -2 -1 -1 -2 -2 -2 -2 -2 -2 -2 -1 -1 -0 -0 0 0 0 -0 -1 -2 -2 -2 -3 -3 -3 -3 -3 -2 -2 -2 -1 -1 -1 -1 -0 -0 -1
2 1 1 1 1 1 1 1 1 2 2 2 2 2 2 2 1 1 1 1 0 0 0 -0 -0 -0 -0 -1 -1 -2 -2 -2 -2 -2 -2 -2 -2 -3 -3 -3 -2 -2 -1 -0 0 0 0 -0 -1 -1 -2 -2 -3 -3 -3 -3 -3 -3 -3 -3 -3 -2 -2 -2 -2 -1 -1 -0 -1
1 1 0 0 1 1 1 2 2 2 2 2 2 2 2 1 1 1 1 1 0 0 -0 -0 -0 -0 -1 -1 -1 -2 -2 -2 -2 -2 -2 -2 -2 -2 -2 -2 -2 -1 -1 -0 0 1 1 1 -0 -1 -2 -3 -3 -3 -3 -3 -2 -2 -3 -3 -3 -3 -3 -3 -2 -2 -1 -1 -1
1 1 1 1 1 1 2 2 2 2 2 2 2 2 2 1 1 1 1 0 0 0 0 0 -0 -0 -1 -1 -1 -1 -1 -1 -1 -2 -2 -2 -2 -2 -2 -2 -1 -1 -0 0 1 1 1 1 1 1 -0 -2 -2 -2 -2 -2 -2 -2 -2 -2 -2 -3 -3 -3 -3 -2 -2 -1 -1
1 1 1 2 2 2 2 2 2 2 2 2 2 2 1 1 1 1 0 0 0 0 0 -0 -1 -1 -1 -1 -1 -1 -1 -1 -1 -2 -2 -2 -2 -2 -1 -1 -1 -0 -0 0 0 0 1 1 1 1 1 -0 -1 -2 -2 -2 -2 -2 -2 -1 -1 -2 -2 -3 -3 -3 -2 -2 -1
1 1 2 2 2 2 2 2 2 2 2 2 2 1 1 1 1 1 0 0 0 0 -0 -0 -1 -2 -2 -1 -1 -1 -1 -1 -1 -2 -2 -2 -2 -2 -1 -1 -0 -0 -0 0 0 0 -0 -0 0 1 1 1 -0 -1 -2 -2 -2 -2 -2 -1 -1 -1 -1 -2 -2 -3 -3 -2 -2
2 2 2 2 2 2 2 2 2 2 2 2 2 1 1 1 1 0 0 0 0 -0 -0 -1 -1 -1 -1 -1 -1 -1 -1 -1 -2 -2 -2 -2 -2 -1 -1 -1 -0 -0 -0 -0 -0 -0 -0 -0 -0 0 1 1 0 -1 -2 -2 -2 -2 -1 -1 -1 -1 -1 -2 -2 -2 -2 -2 -2
2 2 2 2 2 2 2 2 2 2 2 2 1 1 1 1 1 0 0 0 -0 -1 -1 -1 -1 -1 -1 -1 -1 -1 -1 -2 -2 -2 -2 -1 -1 -1 -0 -0 -0 -0 -0 -0 -0 -1 -0 -0 -0 0 0 1 0 -1 -2 -2 -1 -1 -1 -1 -1 -1 -1 -2 -2 -2 -1 -1 -1
2 2 2 2 2 2 2 2 2 2 2 1 1 1 1 0 0 0 0 -0 -0 -1 -1 -1 -1 -1 -1 -1 -1 -1 -2 -2 -2 -2 -2 -1 -1 -0 -0 -0 -0 -1 -1 -1 -1 -1 -0 -0 -0 -0 -0 -0 -0 -1 -2 -1 -1 -1 -1 -1 -1 -1 -2 -2 -2 -2 -2 -1 -1
2 2 2 2 2 2 2 2 2 2 2 1 1 1 1 0 0 0 -0 -1 -1 -1 -1 -1 -1 -1 -0 -0 -1 -1 -2 -2 -2 -2 -1 -1 -0 -0 -0 -0 -1 -1 -1 -1 -1 -1 -1 -1 -0 -0 -0 -0 -1 -1 -1 -1 -1 -1 -1 -1 -2 -2 -2 -2 -2 -2 -2 -1 -1
2 2 3 3 2 2 2 2 2 2 1 1 1 1 0 0 0 -0 -0 -1 -1 -1 -1 -0 -0 -0 -0 -0 -0 -1 -1 -2 -2 -1 -1 -1 -0 -0 -0 -1 -1 -2 -2 -2 -1 -1 -1 -1 -0 -0 -0 -0 -1 -1 -1 -1 -1 -2 -2 -2 -2 -2 -3 -2 -2 -2 -2 -2 -1
2 2 3 3 2 2 2 2 2 1 1 1 1 1 0 0 -0 -0 -1 -1 -1 -1 -1 -0 0 0 0 -0 -1 -1 -1 -1 -1 -1 -1 -1 -0 -0 -0 -1 -1 -2 -2 -2 -2 -1 -1 -1 -0 -0 -1 -1 -1 -2 -2 -2 -2 -2 -2 -2 -3 -3 -3 -3 -3 -3 -2 -2 -1
2 2 2 2 2 2 2 1 1 1 1 0 0 0 0 -0 -0 -1 -1 -1 -1 -1 0 1 0 0 -0 -0 -1 -1 -1 -1 -1 -1 -1 -1 -1 -0 -0 -0 -1 -1 -1 -1 -1 -1 -1 -1 -0 -0 -1 -1 -2 -2 -2 -2 -3 -3 -3 -3 -4 -4 -4 -3 -3 -2 -2 -2 -1
3 2 2 2 2 1 1 1 1 1 0 0 0 0 0 -0 -0 -1 -1 -1 -0 0 1 1 0 -0 -1 -1 -1 -1 -1 -0 -0 -0 -1 -1 -1 -1 -1 -0 -0 -0 -1 -1 -1 -1 -1 -1 -0 -1 -1 -2 -2 -3 -3 -3 -3 -3 -3 -4 -5 -4 -4 -3 -3 -2 -2 -1 1
3 2 2 2 1 1 1 1 0 0 0 0 0 0 0 -0 -1 -1 -1 -1 -0 0 0 0 -0 -0 -1 -1 -1 -1 -1 -0 -0 -0 -1 -1 -1 -1 -1 -1 -1 -1 -1 -2 -2 -2 -1 -1 -1 -1 -1 -2 -2 -3 -2 -2 -2 -2 -3 -3 -4 -4 -4 -4 -3 -2 -1 1 3
2 2 2 1 1 1 0 0 0 0 0 0 0 -0 -0 -1 -2 -1 -0 -0 -0 0 0 0 -0 -0 -0 -0 -0 -0 -1 -1 -1 -1 -1 -1 -2 -2 -2 -2 -2 -2 -2 -2 -2 -2 -2 -1 -1 -1 -1 -2 -2 -2 -2 -2 -2 -2 -2 -3 -4 -5 -5 -5 -2 0 2 4 4
2 1 1 1 1 0 0 0 0 0 0 0 -0 -1 -1 -2 -1 -0 0 0 0 0 0 0 -0 -0 0 0 0 0 -0 -1 -1 -1 -1 -1 -2 -2 -2 -2 -2 -3 -3 -3 -2 -2 -2 -1 -1 -1 -1 -1 -1 -2 -2 -2 -2 -2 -2 -3 -4 -5 -4 -2 0 3 5 5 2
1 1 1 0 0 0 0 0 0 0 0 -0 -1 -1 -1 -1 -0 0 1 1 0 0 -0 -0 -0 -0 0 0 0 1 0 -0 -0 -0 -0 -0 -1 -2 -2 -2 -2 -2 -2 -2 -2 -2 -1 -1 -1 -1 -0 -0 -1 -1 -1 -1 -1 -2 -3 -4 -4 -3 -1 4 5 4 2 0 -0
1 0 0 0 0 0 0 0 0 0 -0 -1 -1 -1 -0 -0 0 0 0 0 0 -0 -0 -0 -0 -0 -0 -0 0 0 1 1 0 0 0 0 -0 -1 -1 -2 -2 -2 -2 -2 -1 -1 -1 -1 -1 -1 -0 -0 -0 -0 -0 -1 -1 -2 -3 -4 -3 -0 3 8 6 2 -3 -4 -3
Height
1472 1473 1475 1477 1478 1479 1480 1481 1482 1484 1486 1487 1489 1491 1493 1494 1495 1496 1497 1498 1499 1500 1501 1502 1502 1503 1503 1504 1504 1505 1505 1505 1505 1504 1504 1503 1503 1502 1502 1502 1501 1501 1500 1500 1499 1498 1498 1497 1496 1496 1495 1495 1494 1493 1492 1492 1491 1491 1490 1489 1488 1488 1487 1486 1486 1485 1484 1483 1482
1471 1473 1474 1476 1477 1478 1479 1481 1482 1484 1486 1488 1490 1491 1492 1494 1495 1496 1497 1498 1499 1500 1501 1501 1501 1502 1502 1503 1503 1504 1504 1504 1503 1503 1503 1502 1502 1501 1501 1501 1500 1500 1499 1499 1498 1497 1497 1496 1496 1495 1494 1494 1493 1492 1491 1491 1491 1490 1489 1488 1487 1487 1486 1486 1485 1484 1483 1482 1481
1471 1472 1474 1475 1476 1477 1479 1481 1482 1484 1486 1488 1489 1491 1492 1493 1494 1496 1496 1497 1498 1499 1500 1500 1501 1501 1502 1502 1503 1503 1503 1503 1502 1502 1502 1501 1501 1501 1500 1500 1499 1499 1498 1497 1497 1496 1496 1496 1495 1494 1493 1493 1492 1491 1491 1490 1490 1489 1488 1487 1486 1486 1485 1484 1484 1483 1482 1481 1480
1470 1471 1473 1475 1476 1477 1479 1481 1482 1484 1486 1487 1489 1490 1491 1493 1494 1495 1496 1497 1498 1498 1499 1500 1500 1501 1501 1501 1502 1502 1502 1502 1501 1501 1501 1500 1500 1500 1499 1499 1498 1498 1497 1496 1496 1496 1495 1495 1494 1493 1493 1492 1491 1491 1490 1489 1489 1488 1487 1486 1486 1485 1484 1483 1482 1482 1481 1480 1479
1470 1471 1473 1474 1476 1477 1479 1481 1482 1484 1485 1487 1488 1490 1491 1492 1493 1494 1495 1496 1497 1498 1498 1499 1499 1500 1500 1501 1501 1501 1501 1501 1500 1500 1500 1499 1499 1499 1498 1498 1497 1497 1496 1496 1495 1495 1494 1494 1493 1492 1492 1491 1491 1490 1489 1489 1488 1487 1486 1486 1485 1484 1483 1482 1481 1481 1480 1479 1478
1469 1471 1472 1474 1476 1477 1479 1481 1482 1484 1485 1486 1488 1489 1491 1491 1493 1494 1495 1496 1496 1497 1497 1498 1499 1499 1499 1500 1500 1500 1500 1500 1499 1499 1499 1498 1498 1498 1497 1497 1496 1496 1495 1495 1494 1494 1493 1493 1492 1491 1491 1490 1490 1489 1488 1488 1487 1486 1486 1485 1484 1483 1482 1481 1480 1479 1478 1477 1476
1469 1470 1472 1473 1475 1477 1479 1481 1482 1484 1485 1486 1488 1489 1490 1491 1492 1493 1494 1495 1496 1496 1497 1497 1498 1498 1498 1499 1499 1499 1499 1498 1498 1498 1498 1497 1497 1497 1496 1496 1495 1495 1494 1494 1493 1493 1492 1492 1491 1491 1490 1489 1489 1488 1487 1487 1486 1486 1485 1484 1483 1482 1481 1480 1479 1478 1477 1476 1475
1469 1470 1471 1473 1475 1477 1479 1480 1482 1483 1485 1486 1487 1489 1490 1491 1491 1492 1493 1494 1495 1495 1496 1496 1497 1497 1497 1498 1498 1498 1497 1497 1497 1497 1497 1496 1496 1496 1495 1495 1494 1494 1493 1493 1492 1492 1491 1491 1491 1490 1489 1488 1488 1487 1486 1486 1485 1485 1484 1483 1482 1481 1480 1478 1477 1476 1475 1474 1473
1468 1470 1471 1473 1475 1477 1479 1480 1482 1483 1485 1486 1487 1488 1489 1490 1491 1492 1492 1493 1494 1494 1495 1496 1496 1496 1496 1497 1497 1496 1496 1496 1496 1496 1496 1496 1495 1495 1494 1494 1493 1493 1492 1492 1491 1491 1491 1490 1490 1489 1488 1488 1487 1486 1486 1485 1484 1483 1482 1481 1481 1480 1478 1477 1476 1475 1474 1473 1472
1467 1469 1471 1473 1475 1477 1479 1480 1482 1483 1484 1486 1486 1488 1489 1490 1490 1491 1492 1492 1493 1494 1494 1495 1495 1495 1496 1496 1496 1496 1496 1495 1495 1495 1495 1494 1494 1494 1493 1493 1492 1492 1491 1491 1491 1490 1490 1489 1489 1488 1487 1487 1486 1485 1485 1484 1483 1482 1481 1480 1479 1478 1477 1476 1475 1473 1472 1471 1470
1467 1469 1471 1473 1475 1477 1478 1480 1481 1483 1484 1485 1486 1487 1488 1489 1490 1490 1491 1491 1492 1493 1493 1494 1494 1494 1494 1495 1495 1494 1494 1494 1494 1494 1494 1493 1493 1493 1492 1492 1491 1491 1491 1490 1490 1489 1489 1488 1488 1487 1486 1486 1485 1484 1483 1483 1482 1481 1480 1479 1478 1477 1476 1475 1473 1472 1471 1470 1469
1467 1469 1471 1473 1475 1476 1478 1479 1481 1482 1483 1484 1485 1486 1487 1488 1489 1489 1490 1491 1491 1492 1492 1493 1493 1493 1493 1493 1493 1493 1493 1493 1493 1493 1493 1492 1492 1492 1491 1491 1491 1490 1490 1489 1489 1489 1488 1487 1487 1486 1485 1485 1484 1483 1482 1481 1481 1480 1478 1477 1476 1475 1474 1473 1472 1471 1470 1468 1467
1466 1468 1471 1472 1474 1476 1477 1479 1480 1481 1482 1484 1485 1486 1486 1487 1488 1489 1489 1490 1491 1491 1491 1492 1492 1492 1492 1492 1492 1492 1492 1492 1492 1492 1491 1491 1491 1491 1490 1490 1490 1489 1489 1488 1488 1487 1487 1486 1486 1485 1485 1484 1483 1482 1481 1480 1479 1478 1477 1476 1475 1474 1473 1471 1471 1469 1468 1467 1466
1466 1468 1470 1472 1474 1476 1477 1478 1479 1481 1482 1483 1484 1485 1486 1486 1487 1488 1488 1489 1490 1490 1491 1491 1491 1491 1491 1491 1491 1491 1491 1491 1491 1491 1491 1490 1490 1490 1489 1489 1488 1488 1488 1487 1487 1486 1486 1486 1485 1484 1483 1482 1481 1481 1480 1479 1477 1476 1476 1474 1473 1472 1471 1470 1469 1467 1466 1465 1464
1466 1468 1470 1472 1474 1475 1476 1478 1479 1480 1481 1482 1483 1484 1485 1486 1486 1487 1487 1488 1489 1489 1490 1490 1490 1490 1490 1490 1490 1490 1490 1490 1490 1490 1490 1489 1489 1489 1488 1488 1487 1487 1487 1486 1486 1485 1485 1484 1484 1483 1482 1481 1480 1479 1478 1477 1476 1475 1474 1473 1471 1471 1469 1468 1467 1466 1464 1463 1461
1466 1468 1470 1471 1473 1475 1476 1477 1478 1479 1481 1481 1482 1483 1484 1485 1485 1486 1487 1487 1488 1488 1489 1489 1489 1489 1489 1489 1489 1489 1489 1489 1489 1489 1488 1488 1488 1488 1487 1487 1487 1486 1486 1485 1485 1484 1483 1483 1482 1481 1481 1480 1479 1478 1477 1476 1475 1474 1472 1471 1470 1469 1467 1466 1465 1464 1462 1461 1460
1466 1468 1470 1471 1473 1474 1475 1476 1478 1479 1480 1481 1481 1482 1483 1484 1485 1485 1486 1486 1487 1487 1487 1488 1488 1488 1488 1488 1488 1488 1488 1488 1488 1488 1487 1487 1487 1487 1486 1486 1486 1486 1485 1484 1484 1483 1482 1481 1481 1480 1479 1478 1477 1476 1476 1474 1473 1472 1471 1470 1468 1467 1466 1464 1463 1462 1460 1459 1458
1466 1467 1469 1471 1472 1474 1475 1476 1477 1478 1479 1480 1481 1482 1482 1483 1484 1485 1485 1486 1486 1486 1486 1486 1487 1487 1487 1487 1487 1487 1487 1487 1487 1487 1486 1486 1486 1486 1486 1485 1485 1485 1484 1483 1483 1482 1481 1480 1479 1478 1477 1476 1476 1475 1474 1473 1472 1471 1469 1468 1467 1466 1464 1463 1461 1460 1459 1457 1456
1465 1467 1469 1471 1472 1473 1475 1476 1476 1478 1478 1479 1480 1481 1482 1482 1483 1484 1484 1485 1485 1485 1486 1486 1486 1486 1486 1486 1486 1486 1486 1486 1486 1486 1486 1486 1485 1485 1485 1484 1484 1483 1483 1482 1481 1481 1480 1479 1478 1477 1476 1475 1474 1473 1472 1471 1470 1469 1468 1466 1465 1464 1462 1461 1460 1458 1457 1456 1454
1465 1467 1469 1470 1471 1473 1474 1475 1476 1477 1478 1479 1480 1480 1481 1482 1482 1483 1483 1484 1484 1484 1485 1485 1485 1485 1485 1485 1485 1485 1485 1485 1485 1485 1485 1485 1484 1484 1484 1483 1483 1482 1482 1481 1480 1479 1478 1477 1476 1476 1475 1474 1473 1472 1471 1470 1468 1467 1466 1465 1463 1462 1461 1459 1458 1457 1455 1454 1452
1465 1467 1468 1470 1471 1472 1473 1475 1476 1476 1477 1478 1479 1480 1481 1481 1482 1482 1482 1483 1483 1483 1484 1484 1484 1484 1484 1484 1484 1484 1484 1484 1484 1484 1484 1483 1483 1483 1483 1482 1482 1481 1481 1480 1479 1478 1477 1476 1475 1474 1473 1472 1471 1470 1469 1468 1466 1465 1464 1463 1461 1460 1459 1458 1456 1455 1454 1452 1451
1465 1466 1468 1469 1471 1472 1473 1474 1475 1476 1476 1477 1478 1479 1480 1480 1481 1481 1481 1482 1482 1482 1483 1483 1483 1483 1483 1483 1483 1483 1483 1483 1483 1483 1483 1482 1482 1482 1482 1481 1481 1480 1479 1479 1478 1477 1476 1475 1473 1472 1471 1470 1469 1468 1467 1466 1465 1463 1462 1461 1460 1458 1457 1456 1455 1453 1452 1451 1449
1464 1466 1467 1469 1470 1471 1472 1473 1474 1475 1476 1477 1478 1478 1479 1480 1480 1480 1481 1481 1481 1481 1482 1482 1482 1482 1482 1482 1482 1482 1482 1482 1482 1482 1481 1481 1481 1481 1481 1480 1480 1479 1478 1477 1476 1475 1474 1473 1472 1471 1469 1468 1467 1466 1465 1464 1462 1461 1460 1459 1458 1456 1455 1454 1452 1451 1450 1449 1447
1464 1465 1467 1468 1469 1471 1471 1473 1474 1474 1475 1476 1477 1478 1478 1479 1479 1479 1480 1480 1481 1481 1481 1481 1481 1481 1481 1481 1481 1481 1481 1481 1481 1481 1481 1480 1480 1480 1479 1479 1478 1478 1477 1476 1475 1474 1472 1471 1470 1468 1467 1466 1465 1464 1463 1462 1461 1459 1458 1457 1456 1454 1453 1452 1451 1449 1448 1447 1445
1463 1465 1466 1467 1469 1470 1471 1472 1473 1474 1475 1476 1476 1477 1477 1478 1478 1479 1479 1479 1480 1480 1480 1480 1480 1480 1480 1480 1480 1480 1480 1480 1480 1480 1480 1479 1479 1478 1478 1477 1477 1476 1476 1475 1474 1472 1471 1470 1468 1467 1466 1464 1463 1462 1461 1460 1459 1457 1456 1455 1453 1452 1451 1449 1448 1447 1446 1445 1443
1463 1464 1466 1467 1468 1469 1470 1471 1472 1473 1474 1475 1476 1476 1476 1477 1477 1478 1478 1479 1479 1479 1479 1479 1480 1480 1480 1480 1480 1480 1479 1479 1479 1479 1479 1478 1478 1477 1477 1476 1476 1475 1474 1473 1472 1471 1470 1469 1467 1466 1464 1463 1461 1460 1459 1458 1457 1456 1454 1453 1451 1450 1449 1447 1446 1445 1444 1443 1442
1462 1464 1465 1466 1468 1469 1470 1471 1472 1473 1473 1474 1475 1475 1476 1476 1477 1477 1477 1478 1478 1478 1478 1479 1479 1479 1479 1479 1479 1479 1479 1479 1478 1478 1478 1477 1477 1476 1476 1475 1474 1473 1472 1471 1471 1469 1468 1467 1466 1464 1463 1461 1460 1459 1457 1456 1455 1454 1453 1451 1450 1448 1447 1446 1444 1443 1442 1441 1440
1462 1463 1465 1466 1467 1468 1469 1470 1471 1472 1473 1473 1474 1475 1475 1476 1476 1476 1477 1477 1477 1477 1478 1478 1478 1478 1478 1478 1478 1478 1478 1478 1477 1477 1477 1476 1476 1475 1474 1474 1473 1472 1471 1470 1469 1468 1467 1466 1464 1463 1461 1460 1458 1457 1456 1455 1453 1452 1451 1450 1448 1446 1445 1444 1443 1441 1440 1439 1438
1461 1463 1464 1465 1466 1467 1469 1470 1471 1471 1472 1473 1473 1474 1474 1475 1475 1476 1476 1476 1476 1477 1477 1477 1477 1477 1477 1477 1477 1477 1477 1477 1476 1476 1476 1475 1475 1474 1473 1472 1471 1470 1469 1468 1467 1466 1465 1464 1462 1461 1460 1459 1457 1456 1454 1453 1452 1450 1449 1448 1446 1445 1444 1442 1441 1440 1439 1437 1436
1461 1462 1464 1465 1466 1467 1468 1469 1470 1471 1471 1472 1473 1473 1474 1474 1475 1475 1476 1476 1476 1476 1476 1476 1476 1476 1476 1476 1476 1476 1476 1476 1475 1475 1475 1474 1473 1472 1471 1471 1470 1469 1468 1467 1466 1465 1463 1462 1461 1460 1458 1457 1456 1454 1453 1451 1450 1449 1447 1446 1445 1443 1442 1441 1440 1438 1437 1436 1435
1461 1462 1464 1465 1466 1467 1468 1469 1470 1470 1471 1471 1472 1473 1473 1474 1474 1475 1475 1475 1475 1475 1476 1476 1476 1476 1476 1475 1475 1475 1475 1475 1474 1474 1473 1473 1472 1471 1470 1469 1468 1467 1466 1465 1464 1463 1461 1460 1459 1458 1457 1456 1454 1452 1451 1450 1448 1447 1446 1444 1443 1442 1441 1440 1438 1437 1436 1434 1433
1461 1462 1463 1465 1466 1466 1467 1468 1469 1470 1471 1471 1471 1472 1473 1473 1474 1474 1474 1474 1475 1475 1475 1475 1475 1475 1475 1475 1474 1474 1474 1473 1473 1472 1472 1471 1471 1470 1469 1467 1466 1466 1465 1463 1462 1461 1460 1459 1457 1456 1455 1454 1452 1451 1449 1448 1447 1445 1444 1443 1441 1440 1439 1438 1436 1435 1434 1433 1432
1461 1462 1463 1464 1465 1466 1467 1468 1469 1469 1470 1471 1471 1472 1472 1473 1473 1473 1474 1474 1474 1474 1474 1474 1474 1474 1474 1474 1473 1473 1473 1472 1472 1471 1471 1470 1469 1468 1467 1466 1465 1464 1463 1462 1461 1460 1458 1457 1456 1455 1453 1452 1451 1449 1447 1446 1445 1443 1442 1441 1440 1439 1437 1436 1435 1434 1433 1432 1431
1461 1462 1463 1464 1465 1466 1467 1467 1468 1469 1470 1470 1471 1471 1472 1472 1472 1473 1473 1473 1473 1473 1474 1474 1474 1473 1473 1473 1473 1472 1472 1471 1471 1470 1469 1468 1467 1467 1466 1464 1463 1462 1461 1460 1459 1458 1457 1456 1454 1453 1451 1450 1449 1447 1446 1444 1443 1441 1440 1439 1438 1437 1436 1435 1433 1432 1431 1430 1429
1461 1461 1463 1464 1465 1466 1466 1467 1468 1469 1469 1470 1471 1471 1471 1472 1472 1472 1472 1472 1473 1473 1473 1473 1473 1473 1472 1472 1472 1471 1471 1470 1469 1468 1467 1467 1466 1465 1464 1463 1462 1461 1460 1459 1457 1456 1455 1454 1452 1451 1450 1448 1446 1445 1444 1442 1441 1439 1438 1437 1436 1435 1434 1433 1432 1431 1430 1429 1427
1461 1461 1462 1463 1464 1465 1466 1467 1468 1468 1469 1470 1470 1471 1471 1471 1471 1471 1472 1472 1472 1472 1472 1472 1472 1472 1471 1471 1471 1470 1470 1469 1468 1467 1466 1465 1464 1464 1463 1461 1460 1459 1458 1457 1456 1455 1454 1452 1451 1449 1448 1446 1445 1443 1441 1440 1439 1437 1436 1435 1434 1433 1432 1431 1430 1429 1428 1427 1426
1461 1461 1462 1463 1464 1465 1466 1467 1467 1468 1469 1469 1470 1470 1471 1471 1471 1471 1471 1471 1471 1471 1471 1471 1471 1471 1471 1470 1470 1469 1468 1467 1466 1466 1465 1464 1463 1462 1461 1460 1459 1458 1456 1456 1454 1453 1452 1451 1449 1448 1446 1444 1443 1441 1440 1438 1437 1436 1435 1434 1432 1431 1431 1430 1428 1427 1426 1425 1424
1461 1461 1462 1463 1464 1465 1466 1466 1467 1468 1468 1469 1469 1470 1470 1470 1470 1470 1471 1471 1471 1471 1471 1471 1470 1470 1470 1469 1468 1467 1467 1466 1465 1464 1463 1462 1461 1460 1459 1458 1457 1456 1455 1454 1452 1451 1450 1449 1448 1446 1445 1443 1441 1440 1438 1437 1436 1434 1433 1432 1431 1430 1429 1428 1427 1426 1425 1424 1423
1460 1461 1462 1463 1464 1465 1466 1466 1467 1467 1468 1468 1469 1469 1469 1469 1470 1470 1470 1470 1470 1470 1470 1470 1470 1469 1469 1468 1467 1466 1466 1465 1464 1463 1462 1461 1460 1459 1458 1456 1456 1454 1453 1452 1451 1450 1448 1447 1446 1445 1443 1441 1440 1438 1437 1435 1434 1433 1432 1431 1429 1428 1427 1426 1425 1424 1423 1422 1421
1460 1461 1462 1463 1464 1465 1465 1466 1466 1467 1467 1468 1468 1468 1468 1469 1469 1469 1469 1469 1469 1469 1469 1469 1468 1468 1467 1467 1466 1466 1465 1464 1462 1461 1461 1460 1458 1457 1456 1455 1454 1453 1452 1451 1449 1448 1447 1446 1444 1443 1441 1440 1438 1437 1435 1434 1433 1432 1431 1429 1428 1427 1426 1425 1424 1423 1422 1421 1419
1460 1461 1462 1463 1464 1465 1465 1466 1466 1466 1467 1467 1467 1468 1468 1468 1468 1469 1469 1469 1469 1468 1468 1468 1467 1467 1466 1466 1465 1465 1464 1463 1461 1461 1460 1458 1457 1456 1455 1454 1452 1451 1450 1449 1448 1446 1445 1444 1442 1441 1440 1439 1437 1436 1434 1433 1431 1430 1429 1428 1427 1426 1425 1424 1422 1421 1420 1419 1418